Location: Sevilla
(37.3933°N, 5.9839°W)
Time: 05:59:45
(UTC+02:00)

Transit 2A Rocket - Pass Details

Date: 25 June 2024
Orbit: 582 x 910 km, 66.7° (Epoch: 15 July)

Event Time Altitude Azimuth Distance (km) Brightness Sun altitude
Rises 20:47:46 0° 184° (S) 3,013 7.9 10.0°
Reaches altitude 10° 20:50:07 10° 176° (S) 2,153 7.1 9.6°
Maximum altitude 20:54:37 37° 109° (ESE) 1,153 5.6 8.8°
Drops below altitude 10° 20:59:33 10° 44° (NE) 2,370 7.4 7.9°
Sets 21:02:14 0° 36° (NE) 3,359 8.2 7.4°
